Weather History for Acapulco, Mexico

Change the Weather History Date:

Thursday, February 21, 2013

  Actual Average Record
Temperature  
Mean Temperature 80 °F -  
Max Temperature 90 °F 88 °F 89 °F (2014)
Min Temperature 69 °F 70 °F 69 °F (2014)
Cooling Degree Days 14    
Growing Degree Days 30 (Base 50)    
Moisture  
Dew Point 72 °F    
Average Humidity 77    
Maximum Humidity 99    
Minimum Humidity 54    
Precipitation  
Precipitation 0.00 in 0.00 in - ()
Sea Level Pressure  
Sea Level Pressure 29.84 in    
Wind  
Wind Speed 3 mph ()    
Max Wind Speed 18 mph    
Max Gust Speed -    
Visibility 8.2 miles    
Events      
Averages and records for this station are not official NWS values.
T = Trace of Precipitation, MM = Missing Value Source: Averaged Metar Reports

Daily Weather History Graph

Daily Weather History Graph

Search for Another Location

Airport:

Trip Planner

Search our weather history database for the weather conditions in past years. The results will help you decide how hot, cold, wet, or windy it might be!

Date:

Astronomy

Feb. 21, 2013 Rise Set
Actual Time 7:01 AM CST 6:43 PM CST
Civil Twilight 6:39 AM CST 7:05 PM CST
Nautical Twilight 6:14 AM CST 7:30 PM CST
Astronomical Twilight 5:49 AM CST 7:56 PM CST
Moon 3:21 PM CST (2/21) 3:44 AM CST (2/21)
Length of Visible Light 12h 25m
Length of Day
11h 41m
Waxing Gibbous, 84% of the Moon is Illuminated
Feb 21
Waxing Gibbous
Feb 25
Full
Mar 4
Last Quarter
Mar 11
New
Mar 19
First Quarter

Hourly Weather History & Observations

Time (CST) Temp. Heat Index Dew Point Humidity Pressure Visibility Wind Dir Wind Speed Gust Speed Precip Events Conditions
12:43 AM 77.0 °F - 73.4 °F 89% 29.85 in 8.0 mi Calm Calm - N/A   Clear
1:43 AM 75.2 °F - 71.6 °F 89% 29.85 in 8.0 mi Calm Calm - N/A   Clear
2:43 AM 75.2 °F - 71.6 °F 89% 29.80 in 8.0 mi Calm Calm - N/A   Clear
2:50 AM 72 °F - 72 °F 99% 29.83 in 6 mi WNW 2.2 mph - -  
3:45 AM 75.2 °F - 68.0 °F 78% 29.83 in 8.0 mi Calm Calm - N/A   Clear
4:43 AM 73.4 °F - 66.2 °F 78% 29.83 in 8.0 mi Calm Calm - N/A   Clear
5:45 AM 73.4 °F - 68.0 °F 83% 29.82 in 8.0 mi Calm Calm - N/A   Clear
5:50 AM 72 °F - 70 °F 92% 29.83 in 6 mi NNW 2.2 mph - -  
6:45 AM 73.4 °F - 69.8 °F 88% 29.85 in 8.0 mi Calm Calm - N/A   Clear
7:43 AM 73.4 °F - 68.0 °F 83% 29.89 in 8.0 mi Calm Calm - N/A   Clear
8:45 AM 75.2 °F - 66.2 °F 73% 29.90 in 8.0 mi Calm Calm - N/A   Clear
8:50 AM 76 °F - 71 °F 82% 29.89 in 12 mi North 2.2 mph - -   Clear
9:46 AM 80.6 °F 83.9 °F 69.8 °F 70% 29.91 in 8.0 mi Calm Calm - N/A   Partly Cloudy
10:45 AM 84.2 °F 89.6 °F 71.6 °F 66% 29.91 in 8.0 mi SW 6.9 mph - N/A   Partly Cloudy
11:46 AM 87.8 °F 95.6 °F 73.4 °F 62% 29.86 in 8.0 mi SW 6.9 mph - N/A   Clear
11:50 AM 87 °F - 72 °F 54% 29.89 in 12 mi SW 11.2 mph - -   Clear
12:42 PM 87.8 °F 99.7 °F 77.0 °F 70% 29.87 in 8.0 mi WSW 8.1 mph - N/A   Clear
1:43 PM 87.8 °F 97.6 °F 75.2 °F 66% 29.83 in 8.0 mi WSW 9.2 mph - N/A   Clear
2:43 PM 86.0 °F 93.4 °F 73.4 °F 66% 29.83 in 8.0 mi WSW 11.5 mph - N/A   Clear
2:50 PM 86 °F - 74 °F 60% 29.81 in 12 mi SW 17.9 mph - -   Scattered Clouds
3:42 PM 86.0 °F 93.4 °F 73.4 °F 66% 29.79 in 8.0 mi WSW 11.5 mph - N/A   Clear
4:46 PM 86.0 °F 93.4 °F 73.4 °F 66% 29.78 in 8.0 mi WSW 11.5 mph - N/A   Clear
5:43 PM 84.2 °F 92.3 °F 75.2 °F 74% 29.76 in 8.0 mi WSW 8.1 mph - N/A   Clear
5:50 PM 83 °F - 74 °F 67% 29.79 in 12 mi WSW 11.2 mph - -   Clear
6:47 PM 82.4 °F 89.5 °F 75.2 °F 79% 29.79 in 8.0 mi WSW 9.2 mph - N/A   Clear
7:43 PM 80.6 °F 86.2 °F 75.2 °F 84% 29.80 in 8.0 mi WSW 5.8 mph - N/A   Clear
8:43 PM 80.6 °F 86.2 °F 75.2 °F 84% 29.78 in 8.0 mi Calm Calm - N/A   Clear
8:50 PM 79 °F - 74 °F 79% 29.85 in 6 mi West 2.2 mph - -  
9:43 PM 80.6 °F 86.2 °F 75.2 °F 84% 29.85 in 8.0 mi Calm Calm - N/A   Clear
10:44 PM 78.8 °F - 73.4 °F 83% 29.88 in 8.0 mi Calm Calm - N/A   Clear
11:43 PM 78.8 °F - 73.4 °F 83% 29.86 in 8.0 mi Calm Calm - N/A   Clear
11:50 PM 74 °F - 72 °F 91% 29.89 in 6 mi NW 2.2 mph - -